Regional Weather Roundup
Issued by NWS

Home | Current Version | Previous Version | Graphics & Text | Print | Product List | Glossary On
Versions: 1 2 3 4 5 6 7 8 9 10 11 12 13 14 15 16 17 18 19 20 21 22 23 24 25 26 27 28 29 30 31 32 33 34 35 36 37 38 39 40 41 42 43 44 45 46 47 48 49 50
488
ASUS44 KLIX 221307
RWRLA
LOUISIANA WEATHER ROUNDUP
NATIONAL WEATHER SERVICE NEW ORLEANS LA
800 AM CDT FRI AUG 22 2014

NOTE: "FAIR" INDICATES FEW OR NO CLOUDS BELOW 12,000 FEET WITH NO
      SIGNIFICANT WEATHER AND/OR OBSTRUCTIONS TO VISIBILITY.
      SKY/WX - SKY CONDITION AND SIGNIFICANT WEATHER.
      TMP - AIR TEMPERATURE.    DP   - DEWPOINT TEMPERATURE.
      RH  - RELATIVE HUMIDITY.  PRES - PRESSURE.
      HX  - HEAT INDEX.         WCI  - WIND CHILL INDEX.

*  THESE STATIONS ARE NOT NWS OR FAA STATIONS AND ARE NOT UNDER
   NWS QUALITY CONTROL.

LAZ040-048-061>063-065-066-069-221400-
SOUTHEAST LOUISIANA

CITY           SKY/WX    TMP DP  RH WIND       PRES   REMARKS
N.O. AUDUBON     N/A     84  76  77 MISG        N/A
N.O. INTL ARPT MOSUNNY   80  75  84 W3        30.11S
N.O. LAKEFRONT MOSUNNY   83  75  77 NW3       30.11S
N.O. DOWNTOWN* FAIR      82  73  74 CALM      30.12S
SLIDELL        SUNNY     78  72  81 CALM      30.11R
BATON ROUGE    PTSUNNY   77  74  90 CALM      30.12R
BOOTHVILLE     SUNNY     84  78  82 N6        30.12R HX  95
BELLE CHASSE   SUNNY     79  74  84 CALM      30.11R
BOGALUSA*        N/A     77  73  86 CALM      30.13R
GALLIANO*      NOT AVBL
NEW ROADS*     FAIR      76  75  96 CALM      30.11S
GONZALES*      FAIR      76  76 100 CALM      30.11S
HAMMOND*       MOSUNNY   77  72  83 CALM      30.13S
HOUMA*         MOSUNNY   77  72  83 CALM      30.11S
PORT FOURCHON* SUNNY     84  79  84 NE7       30.12F HX  96

$$

LAZ041-044-053-054-221400-
SOUTHWEST LOUISIANA

CITY           SKY/WX    TMP DP  RH WIND       PRES   REMARKS
LAKE CHARLES   SUNNY     78  76  93 CALM      30.09R
LAFAYETTE      MOSUNNY   76  74  93 CALM      30.11R
PATTERSON      MOSUNNY   79  77  94 CALM      30.14S
SALT POINT       N/A     82  78  88 CALM      30.10S
NEW IBERIA     SUNNY     78  75  90 CALM      30.11S
CHENAULT AIRPK MOSUNNY   75  75 100 CALM      30.10S

$$

LAZ027-028-221400-
CENTRAL LOUISIANA

CITY           SKY/WX    TMP DP  RH WIND       PRES   REMARKS
FORT POLK      PTSUNNY   75  74  96 CALM      30.10S
ALEXANDRIA INT CLOUDY    76  74  93 SE5       30.09R
ALEXANDRIA     CLOUDY    77  73  87 CALM      30.11R

$$

LAZ001-002-221400-
NORTHWEST LOUISIANA

CITY           SKY/WX    TMP DP  RH WIND       PRES   REMARKS
SHREVEPORT     PTSUNNY   78  75  90 SW8       30.09R
BARKSDALE AFB  PTSUNNY   78  75  91 SW8       30.10R
DTN SHREVEPORT CLOUDY    78  32  18 SW8       30.10R

$$

LAZ014-016-221400-
NORTHEAST LOUISIANA

CITY           SKY/WX    TMP DP  RH WIND       PRES   REMARKS
MONROE         SUNNY     74  72  93 S5        30.12R
TALLULAH       SUNNY     75  73  93 CALM      30.11R

$$




USA.gov is the U.S. government's official web portal to all federal, state and local government web resources and services.